Station Historical Data
Daily Summary for August 19, 2017 Units:  English    Metric   Both
« Previous Day
Next Day »
Daily Weekly Monthly Yearly Custom
  High: Low: Average:
Temperature: 88.9 °F 69.7 °F 77.6 °F
Dew Point: 61.1 °F 52.8 °F 57.6 °F
Humidity: 62 % 36 % 51 %
Wind Speed: 13.0 mph 0.0 mph 1.2 mph
Wind Gust: 13.0 mph - -
Wind:- - South
Pressure: 29.89 in 29.78 in -
Precipitation: 0.00 in    
Historical Graphs
 
 
Tabular Data for August 19, 2017
Time Temperature Dew Point Pressure Wind Wind Speed Wind Gust Humidity Rainfall Rate (Hourly) solar
00:03 72.3 °F 58.6 °F 29.89 in Calm   8.0 mph 62 % 0.00 in 0.00 W/m2
00:08 72.3 °F 58.6 °F 29.88 in Calm   7.0 mph 62 % 0.00 in 0.00 W/m2
00:13 72.4 °F 58.2 °F 29.88 in Calm   8.0 mph 61 % 0.00 in 0.00 W/m2
00:18 72.5 °F 58.3 °F 29.88 in Calm   11.0 mph 61 % 0.00 in 0.00 W/m2
00:23 72.5 °F 58.3 °F 29.88 in Calm   9.0 mph 61 % 0.00 in 0.00 W/m2
00:28 72.6 °F 58.4 °F 29.88 in Calm   13.0 mph 61 % 0.00 in 0.00 W/m2
00:33 72.7 °F 58.5 °F 29.88 in East 8.0 mph 11.0 mph 61 % 0.00 in 0.00 W/m2
00:38 72.8 °F 58.1 °F 29.88 in ESE 1.0 mph 9.0 mph 60 % 0.00 in 0.00 W/m2
00:43 72.9 °F 58.2 °F 29.88 in East 2.0 mph 11.0 mph 60 % 0.00 in 0.00 W/m2
00:44 72.9 °F 58.2 °F 29.87 in ESE 5.0 mph 11.0 mph 60 % 0.00 in 0.00 W/m2
00:49 73.0 °F 58.3 °F 29.88 in Calm   9.0 mph 60 % 0.00 in 0.00 W/m2
00:54 73.0 °F 58.3 °F 29.87 in East 6.0 mph 9.0 mph 60 % 0.00 in 0.00 W/m2
00:59 73.0 °F 57.8 °F 29.88 in ESE 5.0 mph 13.0 mph 59 % 0.00 in 0.00 W/m2
01:04 73.0 °F 57.8 °F 29.87 in Calm   13.0 mph 59 % 0.00 in 0.00 W/m2
01:09 73.1 °F 57.9 °F 29.87 in East 2.0 mph 12.0 mph 59 % 0.00 in 0.00 W/m2
01:14 73.1 °F 57.9 °F 29.87 in East 4.0 mph 13.0 mph 59 % 0.00 in 0.00 W/m2
01:19 73.1 °F 57.9 °F 29.87 in Calm   11.0 mph 59 % 0.00 in 0.00 W/m2
01:24 73.2 °F 58.0 °F 29.87 in East 6.0 mph 12.0 mph 59 % 0.00 in 0.00 W/m2
01:29 73.2 °F 58.0 °F 29.87 in Calm   12.0 mph 59 % 0.00 in 0.00 W/m2
01:34 73.2 °F 58.0 °F 29.87 in East 13.0 mph 13.0 mph 59 % 0.00 in 0.00 W/m2
01:39 73.3 °F 57.7 °F 29.87 in Calm   8.0 mph 58 % 0.00 in 0.00 W/m2
01:44 73.3 °F 57.7 °F 29.87 in ESE 1.0 mph 8.0 mph 58 % 0.00 in 0.00 W/m2
01:49 73.3 °F 57.7 °F 29.87 in Calm   8.0 mph 58 % 0.00 in 0.00 W/m2
01:54 73.3 °F 57.7 °F 29.87 in East 4.0 mph 7.0 mph 58 % 0.00 in 0.00 W/m2
01:59 73.2 °F 57.5 °F 29.87 in Calm   6.0 mph 58 % 0.00 in 0.00 W/m2
02:04 73.2 °F 57.5 °F 29.87 in East 4.0 mph 11.0 mph 58 % 0.00 in 0.00 W/m2
02:09 73.1 °F 57.5 °F 29.86 in Calm   9.0 mph 58 % 0.00 in 0.00 W/m2
02:14 73.1 °F 57.5 °F 29.86 in Calm   7.0 mph 58 % 0.00 in 0.00 W/m2
02:19 73.0 °F 57.4 °F 29.86 in Calm   6.0 mph 58 % 0.00 in 0.00 W/m2
02:24 73.0 °F 57.4 °F 29.86 in Calm   9.0 mph 58 % 0.00 in 0.00 W/m2
02:29 72.9 °F 57.3 °F 29.86 in East 1.0 mph 6.0 mph 58 % 0.00 in 0.00 W/m2
02:34 72.8 °F 57.2 °F 29.86 in Calm     58 % 0.00 in 0.00 W/m2
02:39 72.8 °F 57.2 °F 29.86 in Calm   1.0 mph 58 % 0.00 in 0.00 W/m2
02:44 72.7 °F 57.1 °F 29.86 in Calm   5.0 mph 58 % 0.00 in 0.00 W/m2
02:49 72.7 °F 57.1 °F 29.86 in Calm   6.0 mph 58 % 0.00 in 0.00 W/m2
02:54 72.6 °F 57.0 °F 29.86 in Calm   7.0 mph 58 % 0.00 in 0.00 W/m2
02:59 72.5 °F 56.9 °F 29.86 in East 6.0 mph 7.0 mph 58 % 0.00 in 0.00 W/m2
03:04 72.4 °F 56.8 °F 29.86 in Calm   7.0 mph 58 % 0.00 in 0.00 W/m2
03:09 72.3 °F 56.7 °F 29.86 in Calm   5.0 mph 58 % 0.00 in 0.00 W/m2
03:14 72.2 °F 56.6 °F 29.86 in Calm   6.0 mph 58 % 0.00 in 0.00 W/m2
03:20 72.1 °F 56.5 °F 29.86 in Calm   7.0 mph 58 % 0.00 in 0.00 W/m2
03:25 72.1 °F 56.5 °F 29.86 in Calm   8.0 mph 58 % 0.00 in 0.00 W/m2
03:30 72.0 °F 56.4 °F 29.86 in Calm   6.0 mph 58 % 0.00 in 0.00 W/m2
03:35 71.9 °F 56.3 °F 29.86 in Calm   5.0 mph 58 % 0.00 in 0.00 W/m2
03:40 71.9 °F 56.3 °F 29.86 in Calm   5.0 mph 58 % 0.00 in 0.00 W/m2
03:45 71.8 °F 56.2 °F 29.86 in Calm   5.0 mph 58 % 0.00 in 0.00 W/m2
03:50 71.8 °F 56.2 °F 29.86 in Calm   1.0 mph 58 % 0.00 in 0.00 W/m2
03:55 71.7 °F 55.7 °F 29.86 in Calm   1.0 mph 57 % 0.00 in 0.00 W/m2
04:00 71.7 °F 55.7 °F 29.85 in Calm   6.0 mph 57 % 0.00 in 0.00 W/m2
04:05 71.7 °F 55.7 °F 29.85 in Calm   2.0 mph 57 % 0.00 in 0.00 W/m2
04:10 71.6 °F 55.6 °F 29.85 in East 4.0 mph 7.0 mph 57 % 0.00 in 0.00 W/m2
04:15 71.6 °F 55.6 °F 29.85 in Calm   5.0 mph 57 % 0.00 in 0.00 W/m2
04:20 71.5 °F 55.5 °F 29.85 in Calm   7.0 mph 57 % 0.00 in 0.00 W/m2
04:25 71.5 °F 55.0 °F 29.85 in Calm   7.0 mph 56 % 0.00 in 0.00 W/m2
04:30 71.4 °F 54.9 °F 29.85 in Calm   5.0 mph 56 % 0.00 in 0.00 W/m2
04:35 71.4 °F 54.9 °F 29.85 in Calm   5.0 mph 56 % 0.00 in 0.00 W/m2
04:40 71.4 °F 54.9 °F 29.85 in Calm   4.0 mph 56 % 0.00 in 0.00 W/m2
04:45 71.3 °F 55.3 °F 29.85 in ESE 4.0 mph 8.0 mph 57 % 0.00 in 0.00 W/m2
04:50 71.3 °F 54.8 °F 29.85 in ESE 6.0 mph 8.0 mph 56 % 0.00 in 0.00 W/m2
04:55 71.2 °F 54.7 °F 29.85 in ESE 5.0 mph 8.0 mph 56 % 0.00 in 0.00 W/m2
05:00 71.2 °F 54.7 °F 29.84 in Calm   6.0 mph 56 % 0.00 in 0.00 W/m2
05:05 71.1 °F 54.6 °F 29.84 in ESE 1.0 mph 12.0 mph 56 % 0.00 in 0.00 W/m2
05:10 71.1 °F 54.1 °F 29.84 in Calm   11.0 mph 55 % 0.00 in 0.00 W/m2
05:15 71.0 °F 54.0 °F 29.84 in ESE 1.0 mph 11.0 mph 55 % 0.00 in 0.00 W/m2
05:20 71.0 °F 54.0 °F 29.84 in Calm   9.0 mph 55 % 0.00 in 0.00 W/m2
05:25 71.0 °F 54.0 °F 29.84 in ESE 6.0 mph 8.0 mph 55 % 0.00 in 0.00 W/m2
05:30 71.0 °F 53.5 °F 29.84 in Calm   7.0 mph 54 % 0.00 in 0.00 W/m2
05:35 71.0 °F 54.0 °F 29.84 in East 2.0 mph 11.0 mph 55 % 0.00 in 0.00 W/m2
05:40 70.9 °F 53.4 °F 29.84 in ESE 5.0 mph 9.0 mph 54 % 0.00 in 0.00 W/m2
05:45 70.9 °F 53.4 °F 29.84 in Calm   11.0 mph 54 % 0.00 in 0.00 W/m2
05:50 70.9 °F 53.4 °F 29.84 in Calm   12.0 mph 54 % 0.00 in 0.00 W/m2
05:56 70.9 °F 53.4 °F 29.84 in Calm   8.0 mph 54 % 0.00 in 0.00 W/m2
06:01 70.9 °F 53.4 °F 29.84 in Calm   9.0 mph 54 % 0.00 in 0.00 W/m2
06:06 70.8 °F 53.3 °F 29.84 in Calm   6.0 mph 54 % 0.00 in 0.00 W/m2
06:11 70.8 °F 52.8 °F 29.84 in Calm   6.0 mph 53 % 0.00 in 0.00 W/m2
06:16 70.8 °F 53.3 °F 29.84 in East 1.0 mph 6.0 mph 54 % 0.00 in 0.00 W/m2
06:21 70.7 °F 52.8 °F 29.84 in Calm   5.0 mph 53 % 0.00 in 5.00 W/m2
06:26 70.6 °F 53.2 °F 29.84 in Calm   7.0 mph 54 % 0.00 in 7.00 W/m2
06:31 70.4 °F 53.0 °F 29.84 in East 4.0 mph 7.0 mph 54 % 0.00 in 11.00 W/m2
06:36 70.3 °F 52.9 °F 29.84 in Calm   7.0 mph 54 % 0.00 in 14.00 W/m2
06:41 70.3 °F 52.9 °F 29.85 in Calm   1.0 mph 54 % 0.00 in 16.00 W/m2
06:46 70.2 °F 52.8 °F 29.85 in Calm   1.0 mph 54 % 0.00 in 21.00 W/m2
06:51 70.2 °F 52.8 °F 29.85 in Calm     54 % 0.00 in 26.00 W/m2
06:56 70.1 °F 53.2 °F 29.85 in Calm   6.0 mph 55 % 0.00 in 35.00 W/m2
07:01 69.9 °F 53.0 °F 29.85 in Calm   7.0 mph 55 % 0.00 in 46.00 W/m2
07:06 69.8 °F 53.4 °F 29.85 in Calm   12.0 mph 56 % 0.00 in 56.00 W/m2
07:11 69.8 °F 53.4 °F 29.85 in East 2.0 mph 8.0 mph 56 % 0.00 in 70.00 W/m2
07:16 69.7 °F 53.3 °F 29.85 in Calm   11.0 mph 56 % 0.00 in 83.00 W/m2
07:21 69.7 °F 53.3 °F 29.85 in East 1.0 mph 6.0 mph 56 % 0.00 in 100.00 W/m2
07:26 69.7 °F 53.3 °F 29.85 in Calm     56 % 0.00 in 116.00 W/m2
07:31 69.8 °F 53.4 °F 29.85 in Calm     56 % 0.00 in 135.00 W/m2
07:36 69.9 °F 53.5 °F 29.85 in Calm     56 % 0.00 in 153.00 W/m2
07:41 70.0 °F 54.1 °F 29.85 in Calm     57 % 0.00 in 174.00 W/m2
07:46 70.0 °F 54.1 °F 29.85 in East 4.0 mph 6.0 mph 57 % 0.00 in 193.00 W/m2
07:51 70.1 °F 54.2 °F 29.85 in East 4.0 mph 8.0 mph 57 % 0.00 in 213.00 W/m2
07:56 70.2 °F 54.3 °F 29.85 in East 5.0 mph 8.0 mph 57 % 0.00 in 230.00 W/m2
08:01 70.2 °F 54.3 °F 29.85 in ESE 6.0 mph 12.0 mph 57 % 0.00 in 248.00 W/m2
08:06 70.3 °F 54.4 °F 29.85 in ESE 5.0 mph 5.0 mph 57 % 0.00 in 267.00 W/m2
08:11 70.4 °F 54.5 °F 29.85 in ESE 9.0 mph 9.0 mph 57 % 0.00 in 281.00 W/m2
08:16 70.5 °F 54.1 °F 29.85 in East 6.0 mph 6.0 mph 56 % 0.00 in 295.00 W/m2
08:21 70.6 °F 54.2 °F 29.85 in Calm   6.0 mph 56 % 0.00 in 313.00 W/m2
08:26 70.8 °F 54.3 °F 29.85 in ESE 4.0 mph 7.0 mph 56 % 0.00 in 329.00 W/m2
08:31 70.9 °F 54.4 °F 29.85 in Calm     56 % 0.00 in 345.00 W/m2
08:36 71.1 °F 55.1 °F 29.85 in Calm     57 % 0.00 in 357.00 W/m2
08:41 71.3 °F 55.3 °F 29.85 in Calm   1.0 mph 57 % 0.00 in 378.00 W/m2
08:46 71.5 °F 55.5 °F 29.85 in Calm     57 % 0.00 in 394.00 W/m2
08:51 71.7 °F 55.7 °F 29.85 in Calm     57 % 0.00 in 410.00 W/m2
08:56 71.9 °F 56.3 °F 29.85 in Calm     58 % 0.00 in 427.00 W/m2
09:01 72.1 °F 56.0 °F 29.85 in Calm     57 % 0.00 in 443.00 W/m2
09:06 72.3 °F 56.2 °F 29.85 in Calm     57 % 0.00 in 457.00 W/m2
09:11 72.5 °F 56.4 °F 29.85 in ESE 5.0 mph 6.0 mph 57 % 0.00 in 473.00 W/m2
09:16 72.8 °F 57.2 °F 29.85 in Calm     58 % 0.00 in 489.00 W/m2
09:21 73.1 °F 57.5 °F 29.85 in Calm     58 % 0.00 in 503.00 W/m2
09:26 73.3 °F 57.7 °F 29.85 in ESE 1.0 mph 1.0 mph 58 % 0.00 in 519.00 W/m2
09:31 73.6 °F 57.4 °F 29.86 in Calm   1.0 mph 57 % 0.00 in 533.00 W/m2
09:36 74.0 °F 57.3 °F 29.86 in Calm     56 % 0.00 in 547.00 W/m2
09:37 74.0 °F 56.8 °F 29.86 in Calm     55 % 0.00 in 548.00 W/m2
09:42 74.4 °F 57.2 °F 29.86 in Calm   2.0 mph 55 % 0.00 in 563.00 W/m2
09:47 74.7 °F 57.0 °F 29.86 in Calm     54 % 0.00 in 578.00 W/m2
09:52 75.2 °F 56.9 °F 29.86 in Calm   2.0 mph 53 % 0.00 in 596.00 W/m2
09:57 75.7 °F 56.8 °F 29.86 in Calm   4.0 mph 52 % 0.00 in 612.00 W/m2
10:03 76.2 °F 56.8 °F 29.86 in Calm   4.0 mph 51 % 0.00 in 624.00 W/m2
10:07 76.7 °F 56.1 °F 29.86 in ESE 4.0 mph 4.0 mph 49 % 0.00 in 635.00 W/m2
10:12 77.2 °F 57.1 °F 29.86 in Calm     50 % 0.00 in 645.00 W/m2
10:18 77.6 °F 58.1 °F 29.86 in Calm   1.0 mph 51 % 0.00 in 654.00 W/m2
10:23 77.9 °F 59.4 °F 29.86 in Calm   2.0 mph 53 % 0.00 in 664.00 W/m2
10:28 78.2 °F 59.7 °F 29.86 in Calm   2.0 mph 53 % 0.00 in 677.00 W/m2
10:33 78.5 °F 60.5 °F 29.86 in Calm     54 % 0.00 in 686.00 W/m2
10:38 78.6 °F 59.0 °F 29.86 in Calm     51 % 0.00 in 700.00 W/m2
10:43 78.8 °F 59.2 °F 29.86 in Calm   1.0 mph 51 % 0.00 in 710.00 W/m2
10:48 79.1 °F 57.8 °F 29.86 in Calm   6.0 mph 48 % 0.00 in 721.00 W/m2
10:53 79.5 °F 58.7 °F 29.86 in Calm     49 % 0.00 in 731.00 W/m2
10:58 79.8 °F 58.4 °F 29.86 in Calm   2.0 mph 48 % 0.00 in 738.00 W/m2
11:03 80.2 °F 58.2 °F 29.86 in Calm   4.0 mph 47 % 0.00 in 747.00 W/m2
11:08 80.4 °F 58.9 °F 29.86 in Calm   1.0 mph 48 % 0.00 in 756.00 W/m2
11:13 80.7 °F 58.6 °F 29.85 in Calm   10.0 mph 47 % 0.00 in 763.00 W/m2
11:18 81.0 °F 59.5 °F 29.85 in Calm   6.0 mph 48 % 0.00 in 772.00 W/m2
11:23 81.4 °F 59.8 °F 29.86 in Calm   7.0 mph 48 % 0.00 in 780.00 W/m2
11:28 81.7 °F 58.9 °F 29.85 in Calm   2.0 mph 46 % 0.00 in 788.00 W/m2
11:33 82.2 °F 58.8 °F 29.85 in Calm   5.0 mph 45 % 0.00 in 796.00 W/m2
11:38 82.7 °F 59.2 °F 29.85 in Calm   5.0 mph 45 % 0.00 in 800.00 W/m2
11:43 83.0 °F 58.9 °F 29.85 in WSW 4.0 mph 6.0 mph 44 % 0.00 in 803.00 W/m2
11:48 83.1 °F 59.0 °F 29.85 in Calm   4.0 mph 44 % 0.00 in 810.00 W/m2
11:53 83.4 °F 59.2 °F 29.85 in West 4.0 mph 4.0 mph 44 % 0.00 in 817.00 W/m2
11:58 83.7 °F 58.2 °F 29.85 in Calm   2.0 mph 42 % 0.00 in 823.00 W/m2
12:03 83.9 °F 59.7 °F 29.85 in Calm   6.0 mph 44 % 0.00 in 826.00 W/m2
12:08 84.3 °F 60.7 °F 29.84 in WSW 3.0 mph 4.0 mph 45 % 0.00 in 831.00 W/m2
12:13 84.9 °F 59.3 °F 29.84 in Calm   1.0 mph 42 % 0.00 in 835.00 W/m2
12:18 85.4 °F 59.7 °F 29.84 in Calm   3.0 mph 42 % 0.00 in 840.00 W/m2
12:23 85.7 °F 60.0 °F 29.84 in SW 3.0 mph 7.0 mph 42 % 0.00 in 842.00 W/m2
12:28 86.1 °F 60.3 °F 29.84 in Calm   6.0 mph 42 % 0.00 in 844.00 W/m2
12:33 86.7 °F 60.2 °F 29.84 in SSW 5.0 mph 6.0 mph 41 % 0.00 in 847.00 W/m2
12:34 86.8 °F 60.3 °F 29.84 in SW 4.0 mph 6.0 mph 41 % 0.00 in 849.00 W/m2
12:40 86.9 °F 59.7 °F 29.84 in WSW 3.0 mph 6.0 mph 40 % 0.00 in 851.00 W/m2
12:45 86.6 °F 60.1 °F 29.83 in Calm   4.0 mph 41 % 0.00 in 849.00 W/m2
12:50 86.6 °F 60.8 °F 29.84 in West 6.0 mph 7.0 mph 42 % 0.00 in 854.00 W/m2
12:55 86.5 °F 60.7 °F 29.83 in West 4.0 mph 4.0 mph 42 % 0.00 in 853.00 W/m2
13:00 86.7 °F 60.9 °F 29.83 in West 3.0 mph 6.0 mph 42 % 0.00 in 856.00 W/m2
13:05 86.8 °F 60.3 °F 29.83 in West 4.0 mph 6.0 mph 41 % 0.00 in 856.00 W/m2
13:10 86.9 °F 60.4 °F 29.83 in Calm   7.0 mph 41 % 0.00 in 854.00 W/m2
13:15 86.9 °F 61.1 °F 29.83 in Calm   4.0 mph 42 % 0.00 in 851.00 W/m2
13:20 86.7 °F 60.9 °F 29.83 in West 4.0 mph 7.0 mph 42 % 0.00 in 849.00 W/m2
13:25 86.6 °F 60.8 °F 29.82 in Calm   5.0 mph 42 % 0.00 in 851.00 W/m2
13:30 86.5 °F 60.7 °F 29.82 in Calm   7.0 mph 42 % 0.00 in 849.00 W/m2
13:35 86.5 °F 60.7 °F 29.82 in West 6.0 mph 10.0 mph 42 % 0.00 in 849.00 W/m2
13:40 87.0 °F 60.5 °F 29.82 in WSW 8.0 mph 10.0 mph 41 % 0.00 in 847.00 W/m2
13:45 87.5 °F 60.9 °F 29.82 in Calm   6.0 mph 41 % 0.00 in 840.00 W/m2
13:50 87.5 °F 60.9 °F 29.82 in WSW 8.0 mph 8.0 mph 41 % 0.00 in 838.00 W/m2
13:55 87.5 °F 60.2 °F 29.82 in WSW 2.0 mph 13.0 mph 40 % 0.00 in 833.00 W/m2
14:00 87.8 °F 60.5 °F 29.82 in WSW 1.0 mph 8.0 mph 40 % 0.00 in 830.00 W/m2
14:05 88.1 °F 60.0 °F 29.82 in SW 3.0 mph 11.0 mph 39 % 0.00 in 824.00 W/m2
14:10 88.4 °F 59.6 °F 29.82 in Calm   9.0 mph 38 % 0.00 in 817.00 W/m2
14:15 88.4 °F 58.8 °F 29.82 in Calm   9.0 mph 37 % 0.00 in 814.00 W/m2
14:20 88.6 °F 59.0 °F 29.82 in SW 4.0 mph 10.0 mph 37 % 0.00 in 809.00 W/m2
14:25 88.8 °F 59.9 °F 29.82 in SW 4.0 mph 10.0 mph 38 % 0.00 in 803.00 W/m2
14:30 88.9 °F 60.0 °F 29.81 in WSW 8.0 mph 9.0 mph 38 % 0.00 in 796.00 W/m2
14:35 88.4 °F 59.6 °F 29.81 in West 4.0 mph 7.0 mph 38 % 0.00 in 788.00 W/m2
14:40 88.0 °F 58.5 °F 29.81 in West 1.0 mph 7.0 mph 37 % 0.00 in 782.00 W/m2
14:45 87.8 °F 59.8 °F 29.81 in Calm   9.0 mph 39 % 0.00 in 775.00 W/m2
14:50 87.7 °F 59.7 °F 29.81 in WSW 1.0 mph 9.0 mph 39 % 0.00 in 766.00 W/m2
14:55 87.5 °F 59.5 °F 29.81 in WSW 7.0 mph 12.0 mph 39 % 0.00 in 756.00 W/m2
15:00 87.6 °F 58.9 °F 29.81 in SW 1.0 mph 8.0 mph 38 % 0.00 in 751.00 W/m2
15:05 87.8 °F 59.8 °F 29.81 in SW 4.0 mph 5.0 mph 39 % 0.00 in 744.00 W/m2
15:10 87.6 °F 58.9 °F 29.81 in SW 5.0 mph 9.0 mph 38 % 0.00 in 731.00 W/m2
15:15 87.5 °F 59.5 °F 29.81 in WSW 1.0 mph 8.0 mph 39 % 0.00 in 722.00 W/m2
15:20 87.4 °F 59.4 °F 29.80 in SW 1.0 mph 8.0 mph 39 % 0.00 in 712.00 W/m2
15:22 87.5 °F 58.8 °F 29.81 in Calm   3.0 mph 38 % 0.00 in 710.00 W/m2
15:27 87.6 °F 58.9 °F 29.81 in SW 2.0 mph 2.0 mph 38 % 0.00 in 698.00 W/m2
15:32 87.6 °F 58.1 °F 29.80 in Calm   1.0 mph 37 % 0.00 in 687.00 W/m2
15:37 87.6 °F 58.9 °F 29.80 in Calm   7.0 mph 38 % 0.00 in 675.00 W/m2
15:42 87.5 °F 59.5 °F 29.80 in WSW 2.0 mph 7.0 mph 39 % 0.00 in 666.00 W/m2
15:47 87.4 °F 59.4 °F 29.80 in SSW 5.0 mph 10.0 mph 39 % 0.00 in 652.00 W/m2
15:52 87.4 °F 58.7 °F 29.80 in SW 1.0 mph 4.0 mph 38 % 0.00 in 643.00 W/m2
15:57 87.4 °F 58.7 °F 29.80 in SSW 3.0 mph 8.0 mph 38 % 0.00 in 631.00 W/m2
16:02 87.4 °F 58.7 °F 29.80 in Calm   6.0 mph 38 % 0.00 in 619.00 W/m2
16:07 87.3 °F 57.9 °F 29.80 in SSW 5.0 mph 6.0 mph 37 % 0.00 in 606.00 W/m2
16:12 87.3 °F 57.9 °F 29.80 in Calm     37 % 0.00 in 596.00 W/m2
16:17 87.2 °F 58.5 °F 29.80 in Calm   1.0 mph 38 % 0.00 in 584.00 W/m2
16:22 87.0 °F 59.1 °F 29.80 in Calm   8.0 mph 39 % 0.00 in 568.00 W/m2
16:27 87.0 °F 57.6 °F 29.80 in SW 5.0 mph 5.0 mph 37 % 0.00 in 555.00 W/m2
16:32 87.0 °F 58.3 °F 29.80 in SW 1.0 mph 1.0 mph 38 % 0.00 in 541.00 W/m2
16:37 87.1 °F 58.4 °F 29.80 in SW 4.0 mph 7.0 mph 38 % 0.00 in 526.00 W/m2
16:42 87.1 °F 56.9 °F 29.80 in Calm   6.0 mph 36 % 0.00 in 512.00 W/m2
16:47 87.1 °F 57.7 °F 29.79 in SW 4.0 mph 8.0 mph 37 % 0.00 in 499.00 W/m2
16:52 87.0 °F 57.6 °F 29.79 in SW 3.0 mph 3.0 mph 37 % 0.00 in 485.00 W/m2
16:57 87.0 °F 57.6 °F 29.79 in Calm   1.0 mph 37 % 0.00 in 471.00 W/m2
17:02 86.8 °F 58.2 °F 29.79 in Calm   6.0 mph 38 % 0.00 in 455.00 W/m2
17:07 86.6 °F 58.0 °F 29.79 in Calm   4.0 mph 38 % 0.00 in 439.00 W/m2
17:12 86.3 °F 57.0 °F 29.79 in WSW 5.0 mph 7.0 mph 37 % 0.00 in 422.00 W/m2
17:17 86.1 °F 57.5 °F 29.79 in SW 1.0 mph 1.0 mph 38 % 0.00 in 406.00 W/m2
17:22 86.1 °F 57.5 °F 29.79 in Calm   2.0 mph 38 % 0.00 in 392.00 W/m2
17:27 86.1 °F 58.3 °F 29.79 in Calm   5.0 mph 39 % 0.00 in 376.00 W/m2
17:32 85.9 °F 58.1 °F 29.79 in Calm   1.0 mph 39 % 0.00 in 359.00 W/m2
17:37 85.8 °F 58.0 °F 29.79 in Calm   4.0 mph 39 % 0.00 in 348.00 W/m2
17:42 85.8 °F 57.3 °F 29.79 in Calm   1.0 mph 38 % 0.00 in 332.00 W/m2
17:47 85.8 °F 58.0 °F 29.79 in Calm   1.0 mph 39 % 0.00 in 316.00 W/m2
17:52 85.8 °F 58.0 °F 29.79 in Calm   1.0 mph 39 % 0.00 in 299.00 W/m2
17:57 85.6 °F 57.8 °F 29.80 in South 5.0 mph 7.0 mph 39 % 0.00 in 283.00 W/m2
18:02 85.5 °F 57.0 °F 29.80 in SW 5.0 mph 7.0 mph 38 % 0.00 in 267.00 W/m2
18:08 85.5 °F 57.7 °F 29.80 in SW 1.0 mph 1.0 mph 39 % 0.00 in 250.00 W/m2
18:13 85.3 °F 58.3 °F 29.80 in Calm   2.0 mph 40 % 0.00 in 234.00 W/m2
18:18 85.0 °F 58.0 °F 29.79 in Calm   5.0 mph 40 % 0.00 in 220.00 W/m2
18:23 84.8 °F 58.5 °F 29.79 in Calm   3.0 mph 41 % 0.00 in 204.00 W/m2
18:28 84.7 °F 58.4 °F 29.79 in Calm   4.0 mph 41 % 0.00 in 193.00 W/m2
18:33 84.4 °F 58.8 °F 29.79 in Calm     42 % 0.00 in 176.00 W/m2
18:38 84.1 °F 59.2 °F 29.79 in Calm   3.0 mph 43 % 0.00 in 162.00 W/m2
18:43 83.9 °F 59.0 °F 29.79 in Calm   2.0 mph 43 % 0.00 in 142.00 W/m2
18:48 83.7 °F 59.5 °F 29.79 in Calm   1.0 mph 44 % 0.00 in 123.00 W/m2
18:53 83.4 °F 59.8 °F 29.79 in Calm     45 % 0.00 in 105.00 W/m2
18:58 82.9 °F 60.0 °F 29.79 in Calm     46 % 0.00 in 91.00 W/m2
19:03 82.6 °F 59.8 °F 29.79 in Calm     46 % 0.00 in 77.00 W/m2
19:08 82.1 °F 59.9 °F 29.79 in Calm     47 % 0.00 in 65.00 W/m2
19:13 81.6 °F 60.0 °F 29.79 in Calm     48 % 0.00 in 54.00 W/m2
19:18 81.3 °F 60.3 °F 29.79 in Calm     49 % 0.00 in 44.00 W/m2
19:23 80.8 °F 59.9 °F 29.79 in Calm     49 % 0.00 in 35.00 W/m2
19:24 80.7 °F 60.3 °F 29.79 in Calm     50 % 0.00 in 32.00 W/m2
19:30 80.3 °F 60.5 °F 29.79 in Calm     51 % 0.00 in 25.00 W/m2
19:35 79.9 °F 60.7 °F 29.79 in Calm     52 % 0.00 in 21.00 W/m2
19:40 79.4 °F 60.3 °F 29.79 in Calm     52 % 0.00 in 18.00 W/m2
19:45 79.1 °F 60.0 °F 29.79 in Calm     52 % 0.00 in 14.00 W/m2
19:50 78.6 °F 60.1 °F 29.79 in Calm     53 % 0.00 in 11.00 W/m2
19:55 78.2 °F 59.7 °F 29.78 in Calm     53 % 0.00 in 5.00 W/m2
20:00 77.8 °F 59.3 °F 29.78 in Calm     53 % 0.00 in 0.00 W/m2
20:05 77.5 °F 59.0 °F 29.78 in Calm     53 % 0.00 in 0.00 W/m2
20:10 77.1 °F 59.2 °F 29.78 in Calm     54 % 0.00 in 0.00 W/m2
20:15 76.6 °F 58.7 °F 29.78 in Calm     54 % 0.00 in 0.00 W/m2
20:19 76.4 °F 58.5 °F 29.78 in Calm     54 % 0.00 in 0.00 W/m2
20:20 76.3 °F 58.5 °F 29.78 in Calm     54 % 0.00 in 0.00 W/m2
20:21 76.3 °F 58.5 °F 29.78 in Calm     54 % 0.00 in 0.00 W/m2
20:25 76.1 °F 58.8 °F 29.78 in Calm     55 % 0.00 in 0.00 W/m2
20:30 75.8 °F 58.5 °F 29.78 in Calm     55 % 0.00 in 0.00 W/m2
20:35 75.6 °F 58.3 °F 29.78 in Calm     55 % 0.00 in 0.00 W/m2
20:37 75.5 °F 58.2 °F 29.78 in Calm     55 % 0.00 in 0.00 W/m2
20:43 75.3 °F 58.0 °F 29.78 in Calm     55 % 0.00 in 0.00 W/m2
20:53 75.1 °F 57.8 °F 29.79 in Calm     55 % 0.00 in 0.00 W/m2
20:58 74.9 °F 57.7 °F 29.79 in Calm     55 % 0.00 in 0.00 W/m2
21:03 74.9 °F 58.2 °F 29.79 in Calm     56 % 0.00 in 0.00 W/m2
21:08 74.8 °F 58.1 °F 29.78 in Calm     56 % 0.00 in 0.00 W/m2
21:13 74.8 °F 58.1 °F 29.78 in Calm     56 % 0.00 in 0.00 W/m2
21:18 74.7 °F 58.0 °F 29.79 in Calm   1.0 mph 56 % 0.00 in 0.00 W/m2
21:23 74.7 °F 58.0 °F 29.79 in Calm   4.0 mph 56 % 0.00 in 0.00 W/m2
21:28 74.7 °F 58.0 °F 29.79 in Calm   1.0 mph 56 % 0.00 in 0.00 W/m2
21:33 74.6 °F 57.9 °F 29.79 in Calm   1.0 mph 56 % 0.00 in 0.00 W/m2
21:38 74.6 °F 57.9 °F 29.79 in Calm     56 % 0.00 in 0.00 W/m2
21:43 74.6 °F 57.9 °F 29.79 in Calm     56 % 0.00 in 0.00 W/m2
21:48 74.6 °F 57.9 °F 29.79 in Calm     56 % 0.00 in 0.00 W/m2
21:53 74.6 °F 57.9 °F 29.79 in Calm     56 % 0.00 in 0.00 W/m2
21:58 74.7 °F 58.0 °F 29.79 in Calm     56 % 0.00 in 0.00 W/m2
22:03 74.6 °F 58.4 °F 29.79 in Calm     57 % 0.00 in 0.00 W/m2
22:08 74.3 °F 58.1 °F 29.79 in Calm     57 % 0.00 in 0.00 W/m2
22:13 74.1 °F 57.9 °F 29.79 in Calm     57 % 0.00 in 0.00 W/m2
22:18 73.8 °F 58.1 °F 29.79 in Calm     58 % 0.00 in 0.00 W/m2
22:23 73.7 °F 58.0 °F 29.79 in Calm     58 % 0.00 in 0.00 W/m2
22:28 73.6 °F 57.9 °F 29.79 in Calm   2.0 mph 58 % 0.00 in 0.00 W/m2
22:33 73.6 °F 58.4 °F 29.79 in Calm     59 % 0.00 in 0.00 W/m2
22:38 73.5 °F 58.3 °F 29.79 in Calm   1.0 mph 59 % 0.00 in 0.00 W/m2
22:43 73.5 °F 58.3 °F 29.79 in Calm   2.0 mph 59 % 0.00 in 0.00 W/m2
22:48 73.4 °F 58.2 °F 29.79 in Calm   1.0 mph 59 % 0.00 in 0.00 W/m2
22:53 73.3 °F 58.1 °F 29.79 in Calm     59 % 0.00 in 0.00 W/m2
22:58 73.3 °F 58.1 °F 29.79 in Calm     59 % 0.00 in 0.00 W/m2
23:03 73.2 °F 58.5 °F 29.79 in Calm   3.0 mph 60 % 0.00 in 0.00 W/m2
23:08 73.1 °F 58.4 °F 29.79 in Calm   2.0 mph 60 % 0.00 in 0.00 W/m2
23:14 73.0 °F 58.3 °F 29.79 in Calm   2.0 mph 60 % 0.00 in 0.00 W/m2
23:19 72.9 °F 58.7 °F 29.79 in Calm   2.0 mph 61 % 0.00 in 0.00 W/m2
23:24 72.8 °F 58.6 °F 29.79 in Calm   4.0 mph 61 % 0.00 in 0.00 W/m2
23:29 72.7 °F 58.5 °F 29.79 in South 7.0 mph 7.0 mph 61 % 0.00 in 0.00 W/m2
23:34 72.6 °F 58.4 °F 29.79 in Calm   5.0 mph 61 % 0.00 in 0.00 W/m2
23:39 72.6 °F 58.4 °F 29.79 in SE 2.0 mph 7.0 mph 61 % 0.00 in 0.00 W/m2
23:44 72.5 °F 58.3 °F 29.79 in Calm   11.0 mph 61 % 0.00 in 0.00 W/m2
23:49 72.5 °F 58.3 °F 29.79 in Calm   7.0 mph 61 % 0.00 in 0.00 W/m2
23:54 72.5 °F 58.3 °F 29.79 in ESE 8.0 mph 8.0 mph 61 % 0.00 in 0.00 W/m2
23:59 72.4 °F 57.8 °F 29.79 in Calm   7.0 mph 60 % 0.00 in 0.00 W/m2
Juneau County Weather
Compliments of Weather Underground - 4.5 mb
 WU-history PHP script courtesy of   Juneau County Weather.
powered by Cumulus v1.9.3 (1059)
Ambient Weather VWS v14.00
Top Contact Website Map Copyright © 2007 - 2018 Foresthillweather.com Never base important decisions on this or any weather information obtained from the Internet